Location: Prague
(50.0830°N, 14.4670°E)
Time: 09:06:12
(UTC+02:00)

RS-15 - Pass Details

Date: 03 April 2023
Orbit: 1885 x 2159 km, 64.8° (Epoch: 29 May)

Event Time Altitude Azimuth Distance (km) Brightness Sun altitude
Rises 01:49:19 0° 321° (NW) 5,632 10.9 -34.0°
Reaches altitude 10° 01:52:59 10° 316° (NW) 4,597 10.3 -33.8°
Maximum altitude 02:03:54 45° 249° (WSW) 2,591 8.3 -33.4°
Enters shadow 02:03:55 45° 249° (WSW) 2,591 8.3 -33.4°
